Weather Service Report


751 
ASUS45 KABQ 050110
RWRNM 
NEW MEXICO REGIONAL WEATHER ROUNDUP
NATIONAL WEATHER SERVICE ALBUQUERQUE NM
700 PM MDT WED MAY 04 2016

NOTE: "FAIR" MEANS FEW OR NO CLOUDS BELOW 12,000 FEET AGL WITH NO
       SIGNIFICANT WEATHER OR OBSTRUCTIONS TO VISION.

      THIS PRODUCT IS RELEASED AS TWO VERSIONS.  ONE VERSION NEAR
      THE TOP OF THE HOUR CONTAINING PRELIMINARY DATA FROM ALBUQUERQUE
      AND OTHER STATIONS.  A FINAL VERSION WITH ADDITIONAL DATA IS 
      ISSUED ABOUT 10 MINUTES AFTER THE HOUR.
 
NMZ501-503-504-510>518-050200-
NORTHWEST PLATEAU/NORTHCENTRAL MOUNTAINS
  
CITY           SKY/WX    TMP DP  RH WIND       PRES   REMARKS
FARMINGTON     FAIR      76  15  10 S10       30.11F                  
LOS ALAMOS     FAIR     N/A N/A N/A S7        30.26F                  
SANTA FE       FAIR      72  17  12 W7        30.20F                  
TAOS           FAIR      66  16  14 SW3       30.25S                  
ANGEL FIRE     FAIR      60  20  21 W9        30.32F                  

$$
NMZ402-403-502-505>509-050200-
WESTCENTRAL MOUNTAINS/SOUTHWEST MOUNTAINS
  
CITY           SKY/WX    TMP DP  RH WIND       PRES   REMARKS
GALLUP         FAIR      73  25  16 E5        30.16F                  
GRANTS         FAIR      70  24  17 E13       30.21F                  
SILVER CITY      N/A     75  23  14 SE12G21   30.17S                  

$$
NMZ407-409-411-412-050200-
SOUTHERN DESERTS
  
CITY           SKY/WX    TMP DP  RH WIND       PRES   REMARKS
LORDSBURG      FAIR      81  27  13 E17G24    30.04F                  
DEMING         FAIR      81  24  12 S10       30.08S                  
LAS CRUCES     FAIR      80  20  10 SE3       30.11F                  
HOLLOMAN AFB   FAIR      81  15   8 W8        30.07F                  
ALAMOGORDO     FAIR      81  18   9 W10       30.10S                  
T OR C         FAIR      79  23  12 S10       30.10F                  

$$
NMZ519>523-050200-
CENTRAL VALLEYS/CENTRAL HIGHLANDS
  
CITY           SKY/WX    TMP DP  RH WIND       PRES   REMARKS
ALBUQUERQUE    FAIR      76  20  12 W6        30.15F                  
DOUBLE EAGLE   MOSUNNY   72  19  14 SW7       30.19F                  
MORIARTY ARPT  FAIR      71  12  10 E3        30.22F                  
CLINES CORNERS FAIR      67  18  15 S9        30.25F                  
BELEN          FAIR      76  16  10 SE3       30.14F                  
SOCORRO        FAIR      78  16   9 S6        30.12F                  

$$
NMZ524>526-539-540-050200-
SOUTHCENTRAL MOUNTAINS
  
CITY           SKY/WX    TMP DP  RH WIND       PRES   REMARKS
RUIDOSO          N/A     64  19  17 SE10      30.28S                  

$$
NMZ527>531-050200-
NORTHEAST HIGHLANDS/NORTHEAST PLAINS
  
CITY           SKY/WX    TMP DP  RH WIND       PRES   REMARKS
LAS VEGAS      FAIR      65  22  19 S15       30.24F                  
RATON          FAIR      69  24  18 S9        30.19F                  
CLAYTON        FAIR      70  38  31 SE9       30.15F                  

$$
NMZ532>537-050200-
EASTCENTRAL PLAINS
  
CITY           SKY/WX    TMP DP  RH WIND       PRES   REMARKS
TUCUMCARI      FAIR      77  27  15 S7        30.10F                  
CANNON AFB     CLEAR     76  27  16 N2        30.14F                  
CLOVIS AIRPORT FAIR      73  39  29 E5        30.15F                  

$$
NMZ028-029-538-050200-
SOUTHEAST PLAINS
  
CITY           SKY/WX    TMP DP  RH WIND       PRES   REMARKS
ROSWELL        FAIR      80  17   9 CALM      30.10F                  
ARTESIA        FAIR      81  27  13 CALM      30.11S                  
CARLSBAD       FAIR      81  26  13 CALM      30.09F                  
HOBBS            N/A     81  23  12 NE5       30.12S                  


$$
  

Return to Home page


Western Regional Climate Center, wrcc@dri.edu